Location: Chuathbaluk
(61.5726°N, 159.2454°W)
Time: 02:41:45
(UTC+00:00)

TIGRISAT - Pass Details

Date: 18 January 2021
Orbit: 605 x 688 km, 97.7° (Epoch: 05 March)

Event Time Altitude Azimuth Distance (km) Brightness Sun altitude
Rises 16:40:56 0° 151° (SSE) 2,863 ? -18.6°
Reaches altitude 10° 16:43:06 10° 149° (SSE) 1,968 ? -18.4°
Maximum altitude 16:47:20 66° 67° (ENE) 680 ? -17.9°
Drops below altitude 10° 16:51:40 10° 346° (NNW) 2,015 ? -17.4°
Enters shadow 16:52:11 - 346° (NNW) 2,223 ? -17.3°
